Voltar ao catálogo

SL-8 DEB

AtivoVLEO
NORAD 5778·DEBRIS·🇷🇺 Russia

Lançado Dec 17, 1971 de Plesetsk Cosmodrome

Loading…

Próximas Passagens (próximas 24 horas)

TLE

AtualizadoSource: Space-Track

Época: Sep 14, 2026, 04:15 UTC

1 05778U 71114C   26257.17755349  .00004886  00000-0  38934-3 0  9990
2 05778  74.0019 162.7944 0007337 227.4448 132.6120 15.00617765912762

Acompanhe SL-8 DEB em tempo real com AllMySat

Download on the App Store